Powrót do katalogu

JILIN-1 GAOFEN 07A 04 XING

AktywnyNaukaSSO
NORAD 68693·PAYLOAD·🇨🇳 China
Ta nazwa satelity nie została jeszcze potwierdzona przez oficjalne źródła.

Wystrzelony Apr 14, 2026 z Jiuquan Satellite Launch Center

Loading…

Następne Przeloty (najbliższe 24 godziny)

TLE

ŚwieżeSource: Space-Track

Epoka: Sep 14, 2026, 13:03 UTC

1 68693U 26080C   26257.54385695  .00003943  00000-0  25443-3 0  9995
2 68693  97.6540 332.8507 0015675 108.4946 251.7988 15.08767577 23131

Śledź JILIN-1 GAOFEN 07A 04 XING w czasie rzeczywistym z AllMySat

Download on the App Store